Location: Mentone
(34.5413°N, 85.5351°W)
Time: 21:34:51
(UTC-05:00)

UOSAT-12 - Visible Passes

Search period start: 02 July 2015 00:00
Search period end: 12 July 2015 00:00
Orbit: 599 x 656 km, 64.6° (Epoch: 02 July)

Date Brightness Start Highest point End Pass type
(mag) Time Alt. Az. Time Alt. Az. Time Alt. Az.
02 Jul 9.8 02:58:47 10° N 03:02:05 19° NE 03:05:26 10° E visible
02 Jul 7.5 04:38:06 10° NW 04:42:25 41° WSW 04:46:38 10° S visible
03 Jul 8.4 03:18:06 10° NNW 03:22:28 41° NE 03:26:45 10° SE visible
03 Jul 8.6 04:59:15 10° WNW 05:02:18 17° WSW 05:05:08 10° SSW visible
04 Jul 10.2 02:00:25 10° NNE 02:01:46 11° NE 02:03:21 10° ENE visible
04 Jul 7.0 03:37:59 10° NNW 03:42:36 83° WSW 03:47:06 10° SSE visible
05 Jul 9.4 02:18:43 10° N 02:22:21 23° NE 02:26:00 10° ESE visible
05 Jul 7.7 03:58:25 10° NW 04:02:34 33° WSW 04:03:45 28° SW visible
06 Jul 7.9 02:38:12 10° NNW 02:42:40 50° ENE 02:43:47 40° E visible
06 Jul 9.1 04:19:58 10° WNW 04:20:56 12° W 04:20:56 12° W visible
07 Jul 9.9 01:19:55 10° NNE 01:22:06 13° NE 01:24:26 10° ENE visible
07 Jul 7.6 02:58:12 10° NW 03:01:38 47° NW 03:01:38 47° NW visible
08 Jul 8.9 01:38:42 10° N 01:42:37 27° NE 01:42:40 27° NE visible
08 Jul 9.2 03:18:48 10° NW 03:19:53 15° WNW 03:19:53 15° WNW visible
09 Jul 8.5 01:58:19 10° NNW 02:01:09 35° N 02:01:09 35° N visible
10 Jul 9.6 00:39:40 10° N 00:42:23 16° NE 00:42:36 16° NE visible
10 Jul 9.2 02:18:26 10° NW 02:19:51 19° NW 02:19:51 19° NW visible
11 Jul 9.1 00:58:44 10° N 01:01:25 26° NNE 01:01:25 26° NNE visible
